STARLINK-36843

Last updated on Mon Mar 23 2026 00:02:07 GMT+0000 (Coordinated Universal Time)

1 67856U 26034G 26081.16668981 -.01926748 00000+0 -18311-1 0 9992 2 67856 53.1594 148.8852 0001212 91.1743 131.3207 15.69226308 5866
UTC large
Height (km)
Speed (km/s)
/
Latitude / Longitude
Inclination (degrees)
Orbital Period (minutes)
Azimuth
Elevation
Range (km)
Doppler Factor

Next 0 passes for location: London (51.5072 / 0.1276)

Sorry there are no passes over London.